Coleman, TX

4:54 AM CDT on August 22, 2017 (GMT -0500)
Coleman Municipal

Weather History for KCOM - March, 2013

Change the Weather History Date:

Monday, March 4, 2013

  Actual Average (KABI) Record (KABI)
Temperature  
Mean Temperature 70 °F -  
Max Temperature 85 °F 61 °F 89 °F (1955)
Min Temperature 55 °F 38 °F 16 °F (1917)
Cooling Degree Days 5    
Growing Degree Days 20 (Base 50)    
Moisture  
Dew Point 22 °F    
Average Humidity 19    
Maximum Humidity 35    
Minimum Humidity 8    
Precipitation  
Precipitation 0.00 in - - ()
Sea Level Pressure  
Sea Level Pressure 29.75 in    
Wind  
Wind Speed 12 mph (WSW)    
Max Wind Speed 37 mph    
Max Gust Speed 50 mph    
Visibility 10 miles    
Events      
Averages and records for this station are not official NWS values.
T = Trace of Precipitation, MM = Missing Value Source: NWS Daily Summary

Daily Weather History Graph

Daily Weather History Graph

Search for Another Location

Airport or City:

Trip Planner

Search our weather history database for the weather conditions in past years. The results will help you decide how hot, cold, wet, or windy it might be!

Date:

Astronomy

Mar. 04, 2013 Rise Set
Actual Time 7:00 AM CST 6:37 PM CST
Civil Twilight 6:36 AM CST 7:02 PM CST
Nautical Twilight 6:08 AM CST 7:30 PM CST
Astronomical Twilight 5:39 AM CST 7:58 PM CST
Moon 12:57 AM CST (3/4) 11:36 AM CST (3/4)
Length of Visible Light 12h 25m
Length of Day
11h 37m
Waning Gibbous, 52% of the Moon is Illuminated
Mar 4
Waning Gibbous
Mar 4
Last Quarter
Mar 11
New
Mar 19
First Quarter
Mar 27
Full

Hourly Weather History & Observations

Time (CST) Temp. Dew Point Humidity Pressure Visibility Wind Dir Wind Speed Gust Speed Precip Events Conditions
12:15 AM 62.8 °F 22.3 °F 21% 29.79 in 10.0 mi SSW 13.8 mph 19.6 mph N/A   Clear
12:35 AM 62.4 °F 22.5 °F 22% 29.79 in 10.0 mi SSW 13.8 mph 18.4 mph N/A   Clear
12:55 AM 62.1 °F 22.3 °F 22% 29.78 in 10.0 mi SSW 13.8 mph 18.4 mph N/A   Clear
1:35 AM 62.2 °F 22.5 °F 22% 29.78 in 10.0 mi SW 16.1 mph 21.9 mph N/A   Clear
1:55 AM 61.2 °F 22.6 °F 23% 29.78 in 10.0 mi SW 11.5 mph - N/A   Clear
2:15 AM 60.3 °F 22.8 °F 24% 29.77 in 10.0 mi SW 10.4 mph - N/A   Clear
2:35 AM 60.1 °F 23.0 °F 24% 29.77 in 10.0 mi SW 8.1 mph - N/A   Clear
2:55 AM 59.2 °F 23.4 °F 25% 29.77 in 10.0 mi SW 8.1 mph - N/A   Clear
3:15 AM 59.0 °F 23.9 °F 26% 29.77 in 10.0 mi SW 8.1 mph - N/A   Clear
3:35 AM 57.2 °F 24.4 °F 28% 29.76 in 10.0 mi SSW 8.1 mph - N/A   Clear
3:55 AM 56.7 °F 24.8 °F 29% 29.76 in 10.0 mi SSW 9.2 mph - N/A   Clear
4:15 AM 55.9 °F 25.2 °F 31% 29.76 in 10.0 mi SW 6.9 mph - N/A   Clear
4:35 AM 55.6 °F 25.5 °F 31% 29.77 in 10.0 mi WSW 5.8 mph - N/A   Clear
4:55 AM 55.4 °F 25.0 °F 31% 29.77 in 10.0 mi SW 5.8 mph - N/A   Clear
5:15 AM 55.6 °F 25.0 °F 31% 29.77 in 10.0 mi WSW 9.2 mph - N/A   Clear
5:35 AM 56.3 °F 25.3 °F 30% 29.77 in 10.0 mi WSW 10.4 mph - N/A   Clear
5:55 AM 56.7 °F 25.3 °F 30% 29.77 in 10.0 mi WSW 12.7 mph - N/A   Clear
6:15 AM 56.7 °F 25.3 °F 30% 29.77 in 10.0 mi WSW 10.4 mph - N/A   Clear
6:35 AM 56.5 °F 25.3 °F 30% 29.78 in 10.0 mi WSW 11.5 mph 16.1 mph N/A   Clear
6:55 AM 56.5 °F 25.3 °F 30% 29.78 in 10.0 mi WSW 11.5 mph - N/A   Clear
7:15 AM 56.3 °F 25.7 °F 31% 29.79 in 10.0 mi WSW 10.4 mph - N/A   Clear
7:35 AM 56.7 °F 26.4 °F 31% 29.80 in 10.0 mi WSW 9.2 mph - N/A   Clear
7:55 AM 58.3 °F 27.3 °F 31% 29.80 in 10.0 mi WSW 13.8 mph 20.7 mph N/A   Clear
8:15 AM 60.3 °F 27.9 °F 29% 29.81 in 10.0 mi WSW 15.0 mph 20.7 mph N/A   Clear
8:35 AM 62.2 °F 28.9 °F 28% 29.81 in 10.0 mi WSW 15.0 mph 19.6 mph N/A   Clear
8:55 AM 63.3 °F 28.6 °F 27% 29.81 in 10.0 mi WSW 16.1 mph 23.0 mph N/A   Clear
9:15 AM 66.4 °F 28.2 °F 24% 29.81 in 10.0 mi WSW 13.8 mph 21.9 mph N/A   Clear
9:35 AM 67.5 °F 26.4 °F 21% 29.81 in 10.0 mi West 15.0 mph 26.5 mph N/A   Clear
9:55 AM 69.3 °F 25.2 °F 19% 29.80 in 10.0 mi WSW 18.4 mph - N/A   Clear
10:15 AM 69.8 °F 27.1 °F 20% 29.81 in 10.0 mi WSW 16.1 mph - N/A   Clear
10:35 AM 72.1 °F 24.1 °F 17% 29.81 in 10.0 mi West 16.1 mph - N/A   Clear
10:55 AM 73.0 °F 25.9 °F 17% 29.80 in 10.0 mi WSW 12.7 mph 18.4 mph N/A   Clear
11:15 AM 74.5 °F 24.6 °F 16% 29.80 in 10.0 mi West 11.5 mph 18.4 mph N/A   Clear
11:35 AM 74.5 °F 24.6 °F 16% 29.80 in 10.0 mi West 11.5 mph - N/A   Clear
11:55 AM 75.7 °F 26.4 °F 16% 29.79 in 10.0 mi WSW 12.7 mph 17.3 mph N/A   Clear
12:15 PM 76.8 °F 25.5 °F 15% 29.78 in 10.0 mi WSW 11.5 mph - N/A   Clear
12:55 PM 77.5 °F 25.5 °F 15% 29.77 in 10.0 mi WSW 12.7 mph 18.4 mph N/A   Clear
1:15 PM 77.7 °F 24.4 °F 14% 29.75 in 10.0 mi WSW 15.0 mph - N/A   Clear
1:35 PM 77.9 °F 24.3 °F 14% 29.74 in 10.0 mi SW 11.5 mph - N/A   Clear
1:55 PM 79.7 °F 24.4 °F 13% 29.73 in 10.0 mi WSW 12.7 mph - N/A   Clear
2:15 PM 80.1 °F 25.3 °F 13% 29.72 in 10.0 mi WSW 11.5 mph 19.6 mph N/A   Clear
2:35 PM 80.2 °F 24.3 °F 13% 29.71 in 10.0 mi SW 12.7 mph 18.4 mph N/A   Clear
3:15 PM 82.8 °F 21.9 °F 11% 29.70 in 10.0 mi SSW 10.4 mph 20.7 mph N/A   Clear
3:35 PM 84.9 °F 21.4 °F 10% 29.70 in 10.0 mi SW 11.5 mph - N/A   Clear
3:55 PM 84.2 °F 20.5 °F 10% 29.69 in 10.0 mi SW 9.2 mph 17.3 mph N/A   Clear
4:15 PM 85.8 °F 20.1 °F 9% 29.69 in 10.0 mi WSW 15.0 mph 24.2 mph N/A   Clear
4:35 PM 84.6 °F 16.9 °F 8% 29.68 in 10.0 mi WSW 17.3 mph 25.3 mph N/A   Clear
4:55 PM 83.7 °F 15.1 °F 8% 29.68 in 10.0 mi SW 19.6 mph 25.3 mph N/A   Clear
5:15 PM 82.8 °F 14.4 °F 8% 29.68 in 10.0 mi WSW 20.7 mph 27.6 mph N/A   Clear
5:35 PM 81.3 °F 14.0 °F 8% 29.68 in 10.0 mi WSW 13.8 mph 23.0 mph N/A   Clear
5:55 PM 80.6 °F 14.4 °F 8% 29.68 in 10.0 mi SW 13.8 mph 20.7 mph N/A   Clear
6:15 PM 78.8 °F 14.7 °F 9% 29.69 in 10.0 mi SW 11.5 mph - N/A   Clear
6:35 PM 77.7 °F 13.8 °F 9% 29.69 in 10.0 mi SW 11.5 mph 17.3 mph N/A   Clear
6:55 PM 76.5 °F 12.2 °F 9% 29.70 in 10.0 mi SW 10.4 mph - N/A   Clear
7:15 PM 72.7 °F 14.7 °F 11% 29.70 in 10.0 mi SW 9.2 mph - N/A   Clear
7:35 PM 71.6 °F 15.4 °F 12% 29.70 in 10.0 mi SSW 9.2 mph - N/A   Clear
7:55 PM 70.2 °F 15.6 °F 12% 29.71 in 10.0 mi SSW 10.4 mph - N/A   Clear
8:35 PM 68.5 °F 15.4 °F 13% 29.71 in 10.0 mi SW 10.4 mph - N/A   Clear
8:55 PM 68.2 °F 15.4 °F 13% 29.71 in 10.0 mi SW 9.2 mph - N/A   Clear
9:15 PM 67.5 °F 15.3 °F 13% 29.72 in 10.0 mi SW 10.4 mph - N/A   Clear
9:35 PM 67.1 °F 15.4 °F 14% 29.72 in 10.0 mi SW 11.5 mph - N/A   Clear
9:55 PM 67.8 °F 14.9 °F 13% 29.73 in 10.0 mi SW 8.1 mph - N/A   Clear
10:15 PM 66.7 °F 14.9 °F 14% 29.74 in 10.0 mi WSW 8.1 mph - N/A   Clear
10:35 PM 67.1 °F 14.4 °F 13% 29.74 in 10.0 mi West 8.1 mph - N/A   Clear
10:55 PM 68.2 °F 14.7 °F 13% 29.75 in 10.0 mi West 18.4 mph 27.6 mph N/A   Clear
11:15 PM 76.8 °F 14.5 °F 9% 29.78 in 10.0 mi West 11.5 mph 24.2 mph N/A   Scattered Clouds
11:35 PM 76.5 °F 14.0 °F 9% 29.81 in 10.0 mi WNW 19.6 mph 32.2 mph N/A   Scattered Clouds
11:55 PM 65.8 °F 37.4 °F 35% 29.83 in 7.0 mi North 36.8 mph 49.5 mph N/A   Mostly Cloudy